• In Portugal
  • List of Countries
  • For 7 days
  • Water Temperature
  • Satellite Maps
  • Weather Map
  • Weather Widgets
  • user-avatar
    Login

    Hourly Weather Albany

    Today, 23 May, Wednesday

    Time Temperature Precipitation Wind Pressure Humidity
    00:00 +15°C° 0 mm 4 mps 762 mmHg 41%
    01:00 +15°C° 0 mm 4 mps 762 mmHg 40%
    02:00 +14°C° 0 mm 3 mps 762 mmHg 41%
    03:00 +14°C° 0 mm 3 mps 762 mmHg 41%
    04:00 +14°C° 0 mm 4 mps 762 mmHg 40%
    05:00 +14°C° 0 mm 4 mps 762 mmHg 39%
    06:00 +14°C° 0 mm 4 mps 762 mmHg 39%
    07:00 +15°C° 0 mm 4 mps 762 mmHg 39%
    08:00 +15°C° 0 mm 5 mps 762 mmHg 38%
    09:00 +19°C° 0 mm 4 mps 761 mmHg 35%
    10:00 +21°C° 0 mm 4 mps 761 mmHg 32%
    11:00 +25°C° 0 mm 4 mps 761 mmHg 28%
    12:00 +26°C° 0 mm 4 mps 760 mmHg 27%
    13:00 +26°C° 0 mm 3 mps 760 mmHg 25%
    14:00 +27°C° 0 mm 3 mps 759 mmHg 23%
    15:00 +25°C° 0 mm 3 mps 759 mmHg 26%
    16:00 +24°C° 0 mm 3 mps 759 mmHg 29%
    17:00 +21°C° 0 mm 3 mps 759 mmHg 32%
    18:00 +20°C° 0 mm 4 mps 759 mmHg 33%
    19:00 +19°C° 0 mm 4 mps 759 mmHg 33%
    20:00 +17°C° 0 mm 5 mps 758 mmHg 35%
    21:00 +17°C° 0 mm 5 mps 758 mmHg 34%
    22:00 +17°C° 0 mm 5 mps 758 mmHg 32%
    23:00 +17°C° 0 mm 5 mps 758 mmHg 31%

    Tomorrow, 24 May, Thursday

    Time Temperature Precipitation Wind Pressure Humidity
    00:00 +17°C° 0 mm 5 mps 757 mmHg 30%
    01:00 +17°C° 0 mm 5 mps 757 mmHg 29%
    02:00 +17°C° 0 mm 5 mps 756 mmHg 28%
    03:00 +17°C° 0 mm 6 mps 756 mmHg 27%
    04:00 +17°C° 0 mm 6 mps 756 mmHg 26%
    05:00 +18°C° 0 mm 7 mps 755 mmHg 25%
    06:00 +18°C° 0 mm 7 mps 755 mmHg 26%
    07:00 +18°C° 0 mm 7 mps 755 mmHg 26%
    08:00 +18°C° 0 mm 8 mps 755 mmHg 27%
    09:00 +21°C° 0 mm 8 mps 754 mmHg 25%
    10:00 +23°C° 0 mm 8 mps 754 mmHg 24%
    11:00 +26°C° 0 mm 8 mps 753 mmHg 22%
    12:00 +27°C° 0 mm 8 mps 752 mmHg 22%
    13:00 +28°C° 0 mm 8 mps 751 mmHg 23%
    14:00 +28°C° 0 mm 8 mps 750 mmHg 23%
    15:00 +28°C° 0 mm 7 mps 750 mmHg 24%
    16:00 +27°C° 0 mm 7 mps 749 mmHg 25%
    17:00 +26°C° 0 mm 6 mps 749 mmHg 26%
    18:00 +26°C° 0 mm 7 mps 748 mmHg 25%
    19:00 +26°C° 0 mm 8 mps 747 mmHg 25%
    20:00 +26°C° 0 mm 9 mps 746 mmHg 24%
    21:00 +24°C° 0.1 mm 9 mps 745 mmHg 28%
    22:00 +24°C° 0.1 mm 9 mps 744 mmHg 32%
    23:00 +23°C° 0.1 mm 9 mps 743 mmHg 35%

    Day after tomorrow, 25 May, Friday

    Time Temperature Precipitation Wind Pressure Humidity
    00:00 +22°C° 1.8 mm 10 mps 743 mmHg 50%
    01:00 +19°C° 1.8 mm 11 mps 743 mmHg 65%
    02:00 +17°C° 1.8 mm 12 mps 743 mmHg 80%
    03:00 +17°C° 0.5 mm 11 mps 743 mmHg 81%
    04:00 +16°C° 0.5 mm 10 mps 742 mmHg 82%
    05:00 +15°C° 0.5 mm 9 mps 742 mmHg 83%
    06:00 +15°C° 0.2 mm 9 mps 743 mmHg 82%
    07:00 +13°C° 0.2 mm 9 mps 743 mmHg 81%
    08:00 +13°C° 0.2 mm 9 mps 744 mmHg 80%
    09:00 +13°C° 0.3 mm 9 mps 744 mmHg 76%
    10:00 +13°C° 0.3 mm 9 mps 744 mmHg 73%
    11:00 +13°C° 0.3 mm 10 mps 744 mmHg 69%
    12:00 +14°C° 0.1 mm 10 mps 744 mmHg 63%
    13:00 +16°C° 0.1 mm 10 mps 744 mmHg 58%
    14:00 +16°C° 0.1 mm 11 mps 744 mmHg 52%
    15:00 +16°C° 0.1 mm 11 mps 744 mmHg 54%
    16:00 +14°C° 0.1 mm 10 mps 744 mmHg 56%
    17:00 +14°C° 0.1 mm 10 mps 745 mmHg 57%
    18:00 +13°C° 0.1 mm 10 mps 745 mmHg 60%
    19:00 +13°C° 0.1 mm 10 mps 745 mmHg 63%
    20:00 +12°C° 0.1 mm 10 mps 746 mmHg 66%
    21:00 +13°C° 0.2 mm 11 mps 746 mmHg 64%
    22:00 +13°C° 0.2 mm 11 mps 746 mmHg 63%
    23:00 +13°C° 0.2 mm 11 mps 746 mmHg 62%

    26 May, Saturday

    Time Temperature Precipitation Wind Pressure Humidity
    00:00 +13°C° 0.2 mm 11 mps 746 mmHg 62%
    01:00 +13°C° 0.2 mm 11 mps 746 mmHg 63%
    02:00 +13°C° 0.2 mm 11 mps 746 mmHg 64%
    03:00 +13°C° 0.2 mm 11 mps 746 mmHg 65%
    04:00 +13°C° 0.2 mm 11 mps 746 mmHg 66%
    05:00 +13°C° 0.2 mm 11 mps 746 mmHg 67%
    06:00 +13°C° 0.3 mm 11 mps 747 mmHg 69%
    07:00 +14°C° 0.3 mm 12 mps 748 mmHg 70%
    08:00 +14°C° 0.3 mm 12 mps 749 mmHg 72%
    09:00 +14°C° 0.1 mm 12 mps 750 mmHg 68%
    10:00 +15°C° 0.1 mm 12 mps 751 mmHg 63%
    11:00 +15°C° 0.1 mm 12 mps 752 mmHg 58%
    12:00 +16°C° 0.1 mm 11 mps 752 mmHg 59%
    13:00 +16°C° 0.1 mm 10 mps 752 mmHg 60%
    14:00 +17°C° 0.1 mm 9 mps 752 mmHg 61%
    15:00 +16°C° 0.2 mm 9 mps 752 mmHg 64%
    16:00 +16°C° 0.2 mm 8 mps 753 mmHg 68%
    17:00 +16°C° 0.2 mm 8 mps 753 mmHg 71%
    18:00 +15°C° 0.1 mm 7 mps 754 mmHg 73%
    19:00 +15°C° 0.1 mm 7 mps 754 mmHg 75%
    20:00 +15°C° 0.1 mm 7 mps 754 mmHg 77%
    21:00 +14°C° 0.1 mm 7 mps 754 mmHg 78%
    22:00 +14°C° 0.1 mm 7 mps 754 mmHg 79%
    23:00 +13°C° 0.1 mm 8 mps 754 mmHg 80%

    27 May, Sunday

    Time Temperature Precipitation Wind Pressure Humidity
    00:00 +13°C° 0.2 mm 8 mps 754 mmHg 80%
    01:00 +13°C° 0.2 mm 8 mps 754 mmHg 81%
    02:00 +13°C° 0.2 mm 9 mps 754 mmHg 81%
    03:00 +15°C° 0.5 mm 9 mps 754 mmHg 82%
    04:00 +15°C° 0.5 mm 9 mps 754 mmHg 83%
    05:00 +15°C° 0.5 mm 9 mps 754 mmHg 84%
    06:00 +15°C° 1.2 mm 8 mps 754 mmHg 84%
    07:00 +15°C° 1.2 mm 8 mps 755 mmHg 84%
    08:00 +15°C° 1.2 mm 8 mps 755 mmHg 84%
    09:00 +15°C° 0.3 mm 7 mps 756 mmHg 81%
    10:00 +15°C° 0.3 mm 7 mps 756 mmHg 78%
    11:00 +15°C° 0.3 mm 7 mps 756 mmHg 75%
    12:00 +16°C° 0.1 mm 7 mps 756 mmHg 67%
    13:00 +17°C° 0.1 mm 8 mps 756 mmHg 59%
    14:00 +17°C° 0.1 mm 8 mps 756 mmHg 51%
    15:00 +16°C° 0.5 mm 8 mps 756 mmHg 59%
    16:00 +15°C° 0.5 mm 8 mps 757 mmHg 68%
    17:00 +13°C° 0.5 mm 8 mps 758 mmHg 76%
    18:00 +12°C° 0.2 mm 8 mps 758 mmHg 74%
    19:00 +12°C° 0.2 mm 7 mps 759 mmHg 72%
    20:00 +12°C° 0.2 mm 7 mps 760 mmHg 70%
    21:00 +11°C° 0.1 mm 7 mps 760 mmHg 71%
    22:00 +11°C° 0.1 mm 7 mps 760 mmHg 72%
    23:00 +11°C° 0.1 mm 7 mps 760 mmHg 72%

    28 May, Monday

    Time Temperature Precipitation Wind Pressure Humidity
    00:00 +10°C° 0 mm 6 mps 760 mmHg 73%
    01:00 +10°C° 0 mm 6 mps 761 mmHg 74%
    02:00 +10°C° 0 mm 5 mps 761 mmHg 75%
    03:00 +10°C° 0.1 mm 6 mps 761 mmHg 76%
    04:00 +10°C° 0.1 mm 6 mps 761 mmHg 78%
    05:00 +10°C° 0.1 mm 6 mps 761 mmHg 79%
    06:00 +10°C° 0.2 mm 6 mps 761 mmHg 78%
    07:00 +11°C° 0.2 mm 6 mps 762 mmHg 78%
    08:00 +12°C° 0.2 mm 7 mps 762 mmHg 77%
    09:00 +14°C° 0.1 mm 7 mps 763 mmHg 71%
    10:00 +15°C° 0.1 mm 7 mps 763 mmHg 65%
    11:00 +16°C° 0.1 mm 7 mps 764 mmHg 58%
    12:00 +16°C° 0 mm 6 mps 763 mmHg 57%
    13:00 +16°C° 0 mm 6 mps 763 mmHg 56%
    14:00 +16°C° 0 mm 5 mps 763 mmHg 55%
    15:00 +15°C° 0 mm 5 mps 764 mmHg 57%
    16:00 +14°C° 0 mm 4 mps 764 mmHg 58%
    17:00 +13°C° 0 mm 3 mps 764 mmHg 60%
    18:00 +13°C° 0 mm 3 mps 764 mmHg 63%
    19:00 +12°C° 0 mm 3 mps 765 mmHg 66%
    20:00 +11°C° 0 mm 3 mps 765 mmHg 70%
    21:00 +11°C° 0 mm 3 mps 765 mmHg 71%
    22:00 +11°C° 0 mm 3 mps 765 mmHg 73%
    23:00 +10°C° 0 mm 4 mps 765 mmHg 74%
    Show more